| time (UTC) | temp F | wind direction | speed MPH | gust MPH | rain 1hr in | rain 24hr in | rain mn in | humidity % | barometer mb |
| 20260502224545 | 65 | 64 | 4.0 | 10.0 | 0.00 | 0.00 | 0.00 | 33 | 1016.4 |
| 20260502223042 | 67 | 110 | 5.0 | 9.0 | 0.00 | 0.00 | 0.00 | 32 | 1016.4 |
| 20260502221543 | 65 | 114 | 2.0 | 4.0 | 0.00 | 0.00 | 0.00 | 34 | 1016.6 |
| 20260502220053 | 64 | 20 | 1.0 | 7.0 | 0.00 | 0.00 | 0.00 | 34 | 1017.0 |
| 20260502214545 | 66 | 206 | 5.0 | 9.0 | 0.00 | 0.00 | 0.00 | 33 | 1017.3 |
| 20260502213045 | 66 | 151 | 4.0 | 12.0 | 0.00 | 0.00 | 0.00 | 33 | 1017.3 |
| 20260502211547 | 66 | 153 | 4.0 | 10.0 | 0.00 | 0.00 | 0.00 | 34 | 1017.5 |
| 20260502210054 | 65 | 223 | 4.0 | 14.0 | 0.00 | 0.00 | 0.00 | 34 | 1017.6 |
| 20260502204542 | 65 | 226 | 5.0 | 11.0 | 0.00 | 0.00 | 0.00 | 35 | 1017.9 |
| 20260502203101 | 64 | 189 | 4.0 | 10.0 | 0.00 | 0.00 | 0.00 | 36 | 1018.2 |
| 20260502201547 | 63 | 243 | 4.0 | 10.0 | 0.00 | 0.00 | 0.00 | 37 | 1018.5 |
| 20260502200045 | 64 | 252 | 2.0 | 8.0 | 0.00 | 0.00 | 0.00 | 37 | 1018.6 |
| 20260502194550 | 62 | 328 | 3.0 | 9.0 | 0.00 | 0.00 | 0.00 | 40 | 1018.7 |
| 20260502193053 | 62 | 249 | 1.0 | 9.0 | 0.00 | 0.00 | 0.00 | 39 | 1018.9 |
| 20260502191543 | 62 | 179 | 4.0 | 12.0 | 0.00 | 0.00 | 0.00 | 40 | 1019.0 |
| 20260502190047 | 62 | 264 | 4.0 | 9.0 | 0.00 | 0.00 | 0.00 | 41 | 1019.1 |
| 20260502184546 | 61 | 269 | 4.0 | 7.0 | 0.00 | 0.00 | 0.00 | 40 | 1019.5 |
| 20260502183053 | 60 | 129 | 5.0 | 10.0 | 0.00 | 0.00 | 0.00 | 42 | 1019.8 |
| 20260502181540 | 60 | 78 | 6.0 | 11.0 | 0.00 | 0.00 | 0.00 | 41 | 1019.9 |
| 20260502163105 | 57 | 45 | 5.0 | 16.0 | 0.00 | 0.00 | 0.00 | 46 | 1020.2 |
| 20260502161545 | 56 | 74 | 5.0 | 15.0 | 0.00 | 0.00 | 0.00 | 46 | 1020.3 |
| 20260502151544 | 54 | 29 | 9.0 | 13.0 | 0.00 | 0.00 | 0.00 | 50 | 1020.4 |
| 20260502123057 | 49 | 304 | 19.0 | 25.0 | 0.00 | 0.00 | 0.00 | 60 | 1018.8 |
| 20260502121546 | 49 | 316 | 20.0 | 23.0 | 0.00 | 0.00 | 0.00 | 60 | 1018.8 |
| 20260502114548 | 49 | 311 | 21.0 | 27.0 | 0.00 | 0.00 | 0.00 | 59 | 1018.5 |
| 20260502113042 | 49 | 309 | 20.0 | 27.0 | 0.00 | 0.00 | 0.00 | 59 | 1018.5 |
| 20260502111549 | 49 | 312 | 18.0 | 27.0 | 0.00 | 0.00 | 0.00 | 59 | 1018.5 |
| 20260502110044 | 49 | 304 | 22.0 | 29.0 | 0.00 | 0.00 | 0.00 | 58 | 1018.3 |
| 20260502104545 | 49 | 307 | 21.0 | 29.0 | 0.00 | 0.00 | 0.00 | 59 | 1018.2 |
| 20260502103044 | 49 | 312 | 21.0 | 26.0 | 0.00 | 0.00 | 0.00 | 59 | 1018.1 |
| 20260502101541 | 49 | 302 | 17.0 | 25.0 | 0.00 | 0.00 | 0.00 | 59 | 1018.1 |
| 20260502070052 | 46 | 289 | 4.0 | 7.0 | 0.00 | 0.00 | 0.00 | 49 | 1016.6 |
| 20260502064547 | 48 | 280 | 5.0 | 7.0 | 0.00 | 0.00 | 0.00 | 49 | 1016.5 |
| 20260502063051 | 48 | 295 | 6.0 | 8.0 | 0.00 | 0.00 | 0.00 | 47 | 1016.5 |
| 20260502061546 | 48 | 262 | 5.0 | 7.0 | 0.00 | 0.00 | 0.00 | 46 | 1016.4 |
| 20260502060054 | 48 | 275 | 5.0 | 7.0 | 0.00 | 0.00 | 0.00 | 47 | 1016.4 |
| 20260502054552 | 50 | 281 | 4.0 | 7.0 | 0.00 | 0.00 | 0.00 | 41 | 1016.4 |
| 20260502053043 | 51 | 271 | 4.0 | 5.0 | 0.00 | 0.00 | 0.00 | 40 | 1016.4 |
| 20260502051550 | 51 | 291 | 4.0 | 6.0 | 0.00 | 0.00 | 0.00 | 38 | 1016.4 |
| 20260502050046 | 51 | 269 | 3.0 | 6.0 | 0.00 | 0.00 | 0.00 | 37 | 1016.3 |
| 20260502044553 | 50 | 278 | 5.0 | 8.0 | 0.00 | 0.00 | 0.00 | 40 | 1016.3 |
| 20260502043050 | 52 | 277 | 6.0 | 11.0 | 0.00 | 0.00 | 0.00 | 37 | 1016.1 |
| 20260502041548 | 53 | 288 | 7.0 | 9.0 | 0.00 | 0.00 | 0.00 | 34 | 1016.2 |
| 20260502040045 | 52 | 295 | 5.0 | 9.0 | 0.00 | 0.00 | 0.00 | 36 | 1016.2 |
| 20260502034547 | 51 | 262 | 5.0 | 5.0 | 0.00 | 0.00 | 0.00 | 38 | 1016.0 |
| 20260502033045 | 53 | 277 | 4.0 | 10.0 | 0.00 | 0.00 | 0.00 | 38 | 1016.0 |
| 20260502031550 | 54 | 271 | 6.0 | 9.0 | 0.00 | 0.00 | 0.00 | 34 | 1015.9 |
| 20260502030044 | 55 | 269 | 4.0 | 7.0 | 0.00 | 0.00 | 0.00 | 33 | 1015.5 |
| 20260502024543 | 57 | 274 | 3.0 | 7.0 | 0.00 | 0.00 | 0.00 | 31 | 1015.4 |
| 20260502023043 | 59 | 287 | 4.0 | 8.0 | 0.00 | 0.00 | 0.00 | 28 | 1015.3 |
| 20260502021548 | 60 | 269 | 3.0 | 7.0 | 0.00 | 0.00 | 0.00 | 30 | 1015.2 |
| 20260502020044 | 60 | 281 | 3.0 | 5.0 | 0.00 | 0.00 | 0.00 | 33 | 1015.2 |
| 20260502014554 | 63 | 323 | 5.0 | 8.0 | 0.00 | 0.00 | 0.00 | 28 | 1015.1 |
| 20260502013041 | 67 | 306 | 5.0 | 8.0 | 0.00 | 0.00 | 0.00 | 25 | 1015.2 |
| 20260502011546 | 69 | 309 | 4.0 | 11.0 | 0.00 | 0.00 | 0.00 | 22 | 1015.1 |
| 20260502010042 | 72 | 292 | 8.0 | 13.0 | 0.00 | 0.00 | 0.00 | 16 | 1015.0 |
| 20260502004545 | 72 | 311 | 7.0 | 11.0 | 0.00 | 0.00 | 0.00 | 17 | 1015.0 |
| 20260502003040 | 73 | 323 | 6.0 | 11.0 | 0.00 | 0.00 | 0.00 | 16 | 1015.0 |
| 20260502001546 | 73 | 293 | 5.0 | 8.0 | 0.00 | 0.00 | 0.00 | 15 | 1014.9 |
| 20260502000054 | 73 | 356 | 5.0 | 8.0 | 0.00 | 0.00 | 0.00 | 17 | 1015.1 |
| 20260501234544 | 74 | 236 | 3.0 | 12.0 | 0.00 | 0.00 | 0.00 | 19 | 1015.2 |
| 20260501233042 | 74 | 252 | 2.0 | 10.0 | 0.00 | 0.00 | 0.00 | 19 | 1015.2 |
| 20260501231550 | 72 | 208 | 5.0 | 11.0 | 0.00 | 0.00 | 0.00 | 18 | 1015.2 |
| 20260501230046 | 72 | 35 | 2.0 | 11.0 | 0.00 | 0.00 | 0.00 | 19 | 1015.4 |